Погода в Георгиевске

Погода в Георгиевске : погода сейчас, прогноз погоды и архив. Всё, что Вы хотите узнать о погоде в Георгиевске!

Поиск расширенной информации на нашем сайте:

Другие новости

Новости СМИ2

Главная страница сайта

Новости сайта

03.07.2017

Напоминаем, что на нашем специализированном сайте Метеоцентр.Азия вы можете получить высокодетализированные автоматические прогнозы погоды по пунктам России, СНГ и мира в авиационном формате (включающие направление и скорость ветра, видимость, явления погоды, количество и форму облачности, нижнюю и верхнюю границу облачности).


Погода в Георгиевске - сегодня

Время (UTC), дата Ветер
(°,м/с) 
Видим.   Явления Облачность Т
(°С)
Тd
(°С)
f(%) Тe
(°С)
Pmin
(гПа)
dP
(гПа)
Po
(мм)
O2
(г/м3)
Тmin Tmax R s Состояние
почвы
03 15.02.18 100 (В) 1000 м  слаб. переохл. морось (гололёд){снег} [диам. гололёда 0 мм]  10/10 300 м 
[St]
-0.9 -1.2 98 -2  1027.1  0.6  743  300  -0.9    0.4     
09 15.02.18 100 (В) 0500 м  туман  ?/?  
-0.1 -0.4 98 -1  1029.5  744  300           
18 15.02.18 110 (В) 4000 м  дымка  10/10 300 м 
[St]
+1.9 +1 94 +1  1030.3  0.2  745  298           
21 15.02.18 100 (В) 2000 м  дымка{туман}  10/10 300 м 
[St]
+1.5 +0.8 95 +1  1030.1  -0.3  745  298           
09 16.02.18 100 (В) 1000 м  слаб. морось{туман}  10/10 300 м 
[St]
+1.6 +1.3 98 +1  1030.4  -0.6  745  298           
18 16.02.18 130 (ЮВ) 2000 м  дымка{морось}  10/10 300 м 
[St]
+2.2 +1.6 96 +3  1028.2  -0.7  744  297           
21 16.02.18 090 (В) 2000 м  слаб. морось  10/10 300 м 
[St]
+1.9 +1.3 96 +3  1027.3  -0.8  743  297           
06 17.02.18 100 (В) 0500 м  слаб. морось  ?/?  
+2.1 +1.7 97 +3  1024.9  -0.5  741  296           
09 17.02.18 100 (В) 1000 м  слаб. морось{туман}  10/10 300 м 
[St]
+3.3 +2.9 97 +3  1023.1  -1.5  740  294           
18 17.02.18 тихо ()   4000 м  дымка  10/10 600 м 
[Sc]
+3.4 +2.4 93 +3  1021.1  -0.6  739  294           
21 17.02.18 110 (В) 2000 м  дымка  10/10 300 м 
[St]
+3 +2.4 96 +4  1020.1  -1  738  294           
06 18.02.18 тихо ()   1000 м  дымка  10/10 300 м 
[St]
+2.4 +1.5 94 +2  1020.5  0.3  738  295           
09 18.02.18 330 (СЗ) 20000 м    10/10 600 м 
[Sc]
+5.3 +2.3 81 +6  1019.3  -0.8  737  291           
12 18.02.18 350 (С) 20000 м    10/10 600 м 
[Sc]
+6.4 +3.2 80 +7  1018.9  -0.2  737  290           
18 18.02.18 100 (В) 4000 м  дымка  10/10 300 м 
[St]
+4.1 +2.7 91 +5  1021.3  1.4  739  293           
21 18.02.18 тихо ()   2000 м  слаб. морось  10/10 300 м 
[St]
+3.6 +2.6 93 +4  1020.8  -0.6  738  293           
06 19.02.18 090 (В) 0200 м  туман  ?/?  
+2.4 +2 97 +3  1020.9  0.7  738  295  +2.3         
09 19.02.18 120 (ЮВ) 1000 м  дымка{туман}  10/10 300 м 
[St]
+3.5 +2.8 95 +4  1020.2  -0.6  738  293           
18 19.02.18 тихо ()   4000 м  дымка  6/0 средняя 
[Ac trans]
+3.3 +2.1 92 +3  1021.4  0.3  739  294           
21 19.02.18 тихо ()   4000 м  дымка  8/0 средняя 
[Ac trans]
+1.6 +0.8 94 +2  1020.7  -0.9  738  296           
06 20.02.18 030 (СВ) 2000 м  слаб. морось  10/10 300 м 
[St]
+1.6 +0.9 95 +2  1021.2  0.7  738  296           
09 20.02.18 040 (СВ) 2000 м  слаб. морось  10/10 300 м 
[St]
+1.7 +1.1 96 +2  1021.3  0.1  739  296           
18 20.02.18 050 (СВ) 4000 м  слаб. дождь{снег}  10/10 600 м 
[Ns]
+0.5 +0 96 +1  1022.4  0.8  739  297           
21 20.02.18 060 (СВ) 4000 м  дымка{дождь}  10/10 300 м 
[St]
+0.1 -0.3 97 +1  1022  -0.4  739  298           
03 21.02.18 080 (В) 1000 м  дымка  10/10 200 м 
[St]
+0.1 -0.2 98 -1  1021.7  -0.5  739  298  -0.2    0.6     
Время (UTC), дата Ветер
(°,м/с) 
Видим.   Явления Облачность Т
(°С)
Тd
(°С)
f(%) Тe
(°С)
Pmin
(гПа)
dP
(гПа)
Po
(мм)
O2
(г/м3)
Тmin Tmax R s Состояние
почвы

Для получения пояснительной информации подведите курсор к названию столбца.

ПОГОДА в Георгиевске - архив

Всё, что Вы хотите узнать о погоде в Георгиевске - удобно и подробно!

Выберите нужную дату (начиная с 1 января 2015* года) и нажмите кнопку "Найти".
Будут отображены архивные сводки погоды по пункту Георгиевск, начиная с указанной даты.


Отображать данные в формате CSV (для использования в таблицах Excel)


Внимание! Наш архив погоды предназначен исключительно для личного некоммерческого использования в познавательных целях. Если Вам необходимы официальные справки о состоянии погоды (для производственных, юридических, коммерческих и т.п. целей), обращайтесь в органы Росгидромета.

*Примечание: данная дата относится к архиву по метеостанциям СССР (Россия, СНГ, Балтия).
Архив по метеостанциям Зарубежной Европы и Азии (кроме Китая) хранится 10 дней, по другим регионам земного шара (Китай, Африка, Америка, Австралия, Океания) - 1 день.

Георгиевск - район местоположения метеостанции


Название, широта, долгота, высота метеостанции:
Георгиевск 44.2°ш. 43.5°д. 302 м над ур. моря [Российская Федерация]

Дополнительная информация

В oтличие oт бoльшинства пoгoдных сайтoв мы публикуем пoдрoбную метеoинфoрмацию в детальнoм прoфессиoнальнoм фoрмате.

Характеристики температуры и влажнoсти вoздуха измеряются на высoте 2 м в тени вдали oт зданий и деревьев.
Скoрoсть ветра измеряется на высoте 10 м (на урoвне рoста челoвека скoрoсть ветра ниже в 1.5-2 раза). Если метеoстанция нахoдится в гoрoде или в лесу, тo скoрoсть ветра занижена на 2-4 м/с пo сравнению с oткрытым местoм. Скoрoсть ветра над акватoриями крупных рек и oзёр, а также на вершинах хoлмoв на 2-5 м/с выше, чем в oбычных услoвиях.
Атмoсфернoе давление в разных тoчках местнoсти мoжет значительнo oтличаться oт давления на метеoстанции, в зависимoсти oт услoвий рельефа (при пoдъёме на 10 м давление пoнижается примернo на 1 мм рт.ст.).